CARTOSAT-2F (43111 NORAD) Tracking and Keplerian Element Data

This shows tracking and keplerian element data for the satellite.

Feedback or suggestion? Click here.




ElementValue
Catalog43111
NameCARTOSAT-2F
Epoch Orbit9336
Epoch Day262.1123313
Epoch Year2019
RAAN322.1474
Inclination97.4249
Eccentricity0.0003323
Argument of Perigee303.4767
Mean Anonmoly140.0003
Mean Motion15.1925446
Decay Rate2.2E-06
L11 43111U 18004A 19262.11233130 .00000220 00000-0 13624-4 0 9991
L22 43111 97.4249 322.1474 0003323 303.4767 140.0003 15.19254460 93367

Live tracking and technical data element details for CARTOSAT-2F (NORAD 43111). CARTOSAT-2F can be tracked NOW for your location showing map with azimuth and elevation plus other details from your city location.

Track the satellite on the map from your city or location and see movement details for azimuth, elevation, latitude, longitude, range, height, and movement on the map or in text.







IsCatalogInMostPopularTable: catalog: 43111, numindb: 302
Update: records affected: 1



GetName: 43111 CARTOSAT-2F

Hit Count: updated at: Thu, 19 Sep 2019 17:37:52 GMT